sat.trackr.live / text

‹ back to catalog

STARLINK-1873

NORAD 47158 · 2020-088AN

PAYLOAD ACTIVE UNKNOWN

§ Identity

Operator
Country
US
Launch date
2020-11-25
Launch site
AFETR
Launch vehicle
Mass (kg)
RCS (m²)

Purposes: comms

External: N2YO · Heavens-Above · Gunter

§ Orbital elements

Epoch: 2026-05-25T00:29:07.245600Z

Period
91.53 min
Inclination
53.0426°
Eccentricity
0.0006478
Mean motion
15.73302105 rev/d
Perigee alt
345.1 km
Apogee alt
353.8 km
Semi-major
6,727.6 km
B*
7.1163e-4
RAAN
253.9920°
Arg perigee
2.4431°
Mean anomaly
357.6618°
Rev number
30,425

§ Raw data

STARLINK-18731 47158U 20088AN  26145.02022275  .00101023  00000+0  71163-3 0  99982 47158  53.0426 253.9920 0006478   2.4431 357.6618 15.73302105304253

JSON: /api/v1/satellites/47158 · /tle

For live sub-satellite position, see the globe view (requires WebGL).

§ Visibility from observer

Set your observer location to see the next 7 days of passes ≥ 10°. The values pass through the URL so the page stays shareable.

No JS? Fill the form by hand. The geolocation button needs JavaScript.